Skip Page Navigation
NASA JPL Caltech
NASA Logo - Jet Propulsion Laboratory + View the NASA Portal
+ Center for Near-Earth Object Studies
JPL Home Earth Solar System Stars & Galaxies Technology
JPL Solar System Dynamics
BODIES ORBITS EPHEMERIDES TOOLS PHYSICAL DATA DISCOVERY FAQ SITE MAP
IMPORTANT: The SSD Announcement email list is now available. Major changes are coming in the near future, including possible hostname and/or URL changes. To be notified of such changes, subscribe to this email list.

Please visit this page for more details.


JPL Small-Body Database Browser
Search: [ help ]  
243737 (2000 OU7)
Classification: Main-belt Asteroid          SPK-ID: 2243737
Ephemeris | Orbit Diagram | Orbital Elements | Mission Design | Physical Parameters | Discovery Circumstances | Close-Approach Data ]

[ show orbit diagram ]
Orbital Elements at Epoch 2458600.5 (2019-Apr-27.0) TDB
Reference: JPL 17 (heliocentric ecliptic J2000)
 Element Value Uncertainty (1-sigma)   Units 
e .2402351478053587 4.7037e-08  
a 3.175805574078321 2.3412e-08 au
q 2.412865452588534 1.5573e-07 au
i 5.384902906884476 5.6276e-06 deg
node 263.5768906862946 5.7511e-05 deg
peri 71.67787860701495 5.8756e-05 deg
M 92.04580573262648 1.2411e-05 deg
tp 2458071.956434877590
(2017-Nov-14.45643488)
6.8494e-05 TDB
period 2067.18472318856
5.66
2.2859e-05
6.258e-08
d
yr
n .1741498937959993 1.9258e-09 deg/d
Q 3.938745695568108 2.9037e-08 au
  Orbit Determination Parameters
   # obs. used (total)      442  
   data-arc span      6734 days (18.44 yr)  
   first obs. used      2000-07-30  
   last obs. used      2019-01-06  
   planetary ephem.      DE431  
   SB-pert. ephem.      SB431-N16  
   condition code      0  
   norm. resid. RMS      .54174  
   source      ORB  
   producer      Otto Matic  
   solution date      2019-Jul-13 10:30:29  

Additional Information
 Earth MOID = 1.40896 au 
 Jupiter MOID = 1.51365 au 
 T_jup = 3.148 
[ show covariance matrix ]

Ephemeris | Orbit Diagram | Orbital Elements | Mission Design | Physical Parameters | Discovery Circumstances | Close-Approach Data ]

Physical Parameter Table
Parameter Symbol Value Units Sigma Reference Notes
absolute magnitude H 14.9   n/a MPO422946  
diameter diameter 7.522 km 0.432 urn:nasa:pds:neowise_diameters_albedos::2.0[mainbelt] (http://adsabs.harvard.edu/abs/2011ApJ...741...68M)  
geometric albedo albedo 0.038   0.005 urn:nasa:pds:neowise_diameters_albedos::2.0[mainbelt] (http://adsabs.harvard.edu/abs/2011ApJ...741...68M)  

243737 (2000 OU7)          Discovered 2000-Jul-30 by LINEAR at Socorro
Reference: 20100726/Numbers.arcLast Updated: 2010-07-28

[ show close-approach data ]
Alternate Designations
 2000 OU7 = 2001 VT119 
Ephemeris | Orbit Diagram | Orbital Elements | Mission Design | Physical Parameters | Discovery Circumstances | Close-Approach Data ]
ABOUT SSD CREDITS/AWARDS PRIVACY/COPYRIGHT GLOSSARY LINKS
FirstGov 2019-Dec-09 16:56 UT
(server date/time)  
NASA Home Page
Site Manager:   Ryan S. Park
Webmaster  Alan B. Chamberlin